User: anonymous   Login
Location: Unspecified
(0.0000°N, 0.0000°E)
Time: 21:51:53
(UTC+00:00)
Language:

Meteor 3-1 - Orbit

View from above orbital plane
View from above orbital plane
View from above satellite
View from above satellite

Ground track
Ground track

The orbit data is extracted from the following two-line orbital elements,

1 16191U 85100A   18017.60543409 -.00000110 +00000-0 -31628-3 0  9997
2 16191 082.5465 050.0149 0020932 118.7342 045.1500 13.17210017549816
Epoch (UTC): 17 January 2018 14:31:49
Eccentricity: 0.0020932
inclination: 82.5465°
perigee height: 1179 km
apogee height: 1211 km
right ascension of ascending node: 50.0149°
argument of perigee: 118.7342°
revolutions per day: 13.17210017
mean anomaly at epoch: 45.1500°
orbit number at epoch: 54981

The dashed part of the orbit path shows where the satellite is in the earth's shadow,  

DLR